SCP
0 0 0 0 0 0 0 0 0 0 0 0 0 0 0 0 0 0 0 -0 -0 -0 -0 0 -0 -0 -1 -0 -0 -0 -0 -0 -0 -0 -0 -0 0 0 0 0 0 0 0 0 0 0 0 0 0
0 0 0 0 0 0 0 0 0 0 0 0 0 0 0 0 0 0 -0 0 -0 -0 -0 0 0 -0 -0 -0 -0 -0 -0 -0 -0 -0 -0 -0 0 0 0 0 0 0 0 0 0 0 0 0 0
0 0 0 0 0 0 -0 0 0 0 0 0 0 0 0 0 0 0 0 0 -0 -0 0 -0 0 0 -0 -0 -0 -0 -0 -0 -0 -0 -0 -0 -0 -0 0 0 0 0 0 0 0 0 0 0 0
0 0 0 0 0 0 0 0 0 0 0 0 0 0 0 0 -0 0 0 -0 -0 -0 0 -0 0 0 0 -0 -0 -0 -0 -0 -0 -0 -0 -0 -0 0 0 0 0 0 0 0 0 0 0 0 0
0 0 0 0 0 0 0 0 0 0 0 0 0 0 0 -0 0 0 0 -0 -0 0 0 -0 -0 0 0 0 -0 -0 -1 -1 -0 -0 -0 -0 0 0 0 0 0 0 0 0 0 0 0 0 0
0 0 0 0 0 0 -0 -0 0 0 0 0 0 0 0 -0 0 0 0 0 0 0 -0 -0 0 0 -0 0 0 -0 -1 -1 -1 -0 -0 -0 -0 0 0 0 0 0 0 0 0 0 0 0 0
0 0 0 0 0 0 0 -0 0 0 0 0 0 0 0 0 -0 0 0 0 0 0 0 -0 -0 0 -0 -0 -0 -0 -0 -0 -1 -0 -0 -0 -0 0 0 0 0 0 0 0 0 0 0 0 0
0 0 0 0 0 0 -0 0 0 0 0 0 0 0 0 0 0 0 0 0 0 0 0 -0 -0 -0 0 -0 -0 -0 -0 -0 -0 -0 -0 0 0 0 0 0 0 0 0 0 0 0 0 0 0
0 0 0 0 0 0 0 -0 0 -0 0 0 0 0 0 0 0 0 0 0 0 0 0 0 -0 0 0 0 -0 -0 -0 0 -0 -0 -0 0 1 1 0 0 0 0 0 0 0 1 1 0 0
0 0 0 0 0 0 0 -0 -0 -0 0 -0 -0 0 0 0 0 0 0 0 0 0 0 0 -0 0 0 0 0 -0 -0 -0 0 0 0 0 0 0 0 0 0 0 0 0 1 1 1 0 0
0 0 0 0 0 0 -0 -0 0 -0 -0 -0 -0 0 0 0 0 0 0 0 0 0 0 0 0 0 0 0 0 0 0 0 0 0 0 0 0 0 1 0 1 0 0 0 0 1 1 0 0
0 0 0 0 0 0 -0 -0 -0 -0 -0 -0 -0 -0 0 0 0 0 0 0 0 0 0 0 0 0 0 0 0 0 0 0 0 0 0 0 0 0 0 0 0 0 0 0 0 0 0 0 0
0 0 0 0 0 0 0 0 -0 -0 -0 -0 -0 -0 -0 0 0 0 0 0 0 0 0 0 0 0 0 0 0 0 0 0 0 0 0 0 0 0 0 0 0 0 0 0 0 0 0 0 0
0 0 0 0 0 0 0 0 -0 -0 -0 -0 -0 -0 -0 -0 0 0 0 0 0 0 0 0 0 0 0 0 0 0 0 0 0 0 0 0 0 0 0 0 0 0 0 0 0 0 0 0 0
0 0 0 0 0 0 0 0 -0 -0 -0 -0 -0 -0 -0 -0 0 0 0 0 0 0 1 0 0 0 0 0 0 0 0 0 0 0 0 0 0 0 0 0 0 0 0 0 0 0 0 0 0
0 0 0 0 0 0 0 0 0 0 0 0 -0 -0 -0 -0 0 0 0 0 0 0 1 1 1 0 0 0 0 0 0 0 0 0 0 0 0 0 0 0 0 0 0 0 0 0 0 0 0
0 0 0 0 0 0 0 0 0 0 0 0 0 0 0 0 0 0 0 0 0 0 0 1 1 1 0 0 0 0 0 0 0 0 0 0 0 0 0 0 0 0 0 0 0 0 0 0 0
0 0 0 0 0 0 0 0 0 0 0 0 0 0 0 0 0 0 0 0 0 0 0 0 1 2 1 0 0 0 0 0 0 0 0 0 0 0 0 0 0 0 0 0 0 0 0 0 0
0 0 0 0 0 0 0 0 0 0 0 0 0 0 0 0 0 0 0 0 0 0 0 0 0 0 0 1 1 1 0 0 0 0 0 0 0 0 0 0 0 0 0 0 0 0 0 0 0
0 0 0 0 0 0 0 0 -0 -0 -0 -0 -0 -0 -0 -0 0 0 0 0 0 0 0 0 0 0 0 0 1 2 1 1 1 1 1 1 1 1 0 0 0 0 0 0 0 0 0 0 0
0 0 0 -0 -0 -0 -0 -0 -0 0 0 0 0 0 -0 -0 -0 -0 0 0 0 0 0 0 0 0 0 0 0 0 0 0 0 1 2 1 1 1 1 0 0 0 0 0 0 0 0 0 0
0 0 0 0 0 -0 0 -0 -0 -0 0 0 0 0 0 0 0 -0 -0 0 0 0 0 0 0 0 0 0 0 0 1 1 1 1 1 1 1 1 1 1 1 0 0 0 0 0 0 0 0
0 0 0 0 0 0 0 0 -0 0 0 0 0 0 0 0 0 0 0 0 0 0 0 0 0 0 0 0 0 0 0 0 1 0 1 1 1 1 1 1 1 0 0 0 0 0 0 0 0
0 0 0 0 0 0 -0 -0 -0 -0 -0 0 0 0 0 0 0 0 0 0 0 0 0 -0 0 0 0 0 0 0 1 1 0 0 0 0 0 0 1 1 1 1 1 0 0 0 0 0 0
0 0 0 0 0 0 0 0 0 0 -0 -0 0 0 0 0 0 0 0 0 0 0 0 0 -0 0 0 0 0 0 0 1 0 0 0 0 0 0 1 1 1 1 1 1 0 0 0 0 0
0 0 0 0 0 0 0 0 0 0 0 0 0 0 0 0 0 0 0 0 0 0 0 0 0 0 0 0 0 0 0 1 0 0 0 0 0 0 1 1 1 1 1 0 0 0 0 0 0
0 0 0 0 0 0 0 0 0 -0 0 0 -0 0 0 0 0 0 0 -0 -0 0 0 0 0 0 0 0 0 0 0 0 0 0 0 0 0 0 1 1 1 1 1 1 0 0 0 0 0
0 0 0 0 0 0 0 0 0 0 0 0 0 0 0 0 0 0 0 0 0 0 0 0 0 0 0 0 0 0 0 0 0 0 0 0 0 1 1 1 1 1 1 0 0 0 0 0 0
0 0 0 0 0 0 0 0 0 0 0 0 0 0 0 0 0 0 0 0 0 0 0 0 0 0 0 0 0 0 0 0 0 0 0 0 0 1 1 1 1 1 1 0 0 0 0 0 0
0 0 0 0 0 0 0 0 0 0 0 0 0 -0 0 0 0 0 -0 -0 -0 0 0 0 0 0 0 0 0 0 0 0 0 0 0 0 1 1 1 1 1 1 1 0 0 0 0 0 0
Wind_Speed_500mb
11 3 9 7 7 9 6 12 2 9 13 5 27 10 17 20 13 11 11 47 63 68 70 69 63 58 55 53 52 51 51 50 47 46 45 42 40 37 34 32 29 25 24 22 21 19 17 16 14
11 6 7 7 8 2 10 7 5 9 14 34 32 15 12 28 60 50 35 63 69 77 78 74 70 65 61 58 57 56 55 52 49 47 43 40 37 33 30 28 25 22 20 18 17 16 15 13 11
5 8 4 7 7 12 9 9 6 11 27 14 10 38 14 11 18 41 47 71 80 78 79 76 74 68 65 62 60 57 54 51 48 45 41 37 34 30 27 24 22 20 18 16 14 13 11 11 9
2 3 6 6 17 8 9 7 11 11 12 17 18 18 32 23 16 37 39 87 85 82 81 79 74 70 67 65 62 58 53 50 48 44 40 35 31 28 24 22 20 18 16 13 13 11 10 9 7
9 3 3 4 13 5 6 10 19 10 14 34 45 17 23 24 20 44 50 83 90 85 82 81 75 70 68 66 63 59 54 51 48 43 38 34 31 27 24 20 18 16 15 13 11 10 8 7 5
7 6 5 9 21 1 3 15 15 7 14 35 25 34 14 64 21 34 69 84 85 84 84 82 76 71 68 67 65 60 56 52 48 43 38 34 31 27 25 22 20 18 17 16 14 12 11 9 7
11 7 10 10 13 8 4 6 3 6 13 13 45 8 39 86 32 26 81 84 88 83 84 83 80 74 70 68 66 61 55 51 48 44 39 35 31 29 27 26 24 23 21 20 18 18 17 16 14
8 7 8 10 12 7 3 15 16 12 11 35 30 12 30 68 35 20 78 84 89 84 83 82 80 79 75 71 68 64 58 53 48 44 40 37 34 33 33 31 31 28 26 24 25 25 24 23 22
10 4 10 12 9 7 18 13 21 15 25 31 7 26 42 62 47 23 66 74 90 89 88 83 78 79 76 72 69 66 63 57 53 49 45 43 40 38 38 37 35 32 30 30 31 33 30 29 30
9 7 14 7 6 10 27 11 28 15 32 19 32 42 50 49 42 26 48 67 86 90 88 83 79 80 77 73 70 68 64 62 59 55 51 49 42 41 40 41 39 37 34 35 35 38 37 37 35
5 7 3 4 8 8 18 8 12 13 22 5 41 59 58 46 33 37 35 53 79 85 86 88 87 84 79 77 74 71 66 64 62 58 54 51 45 44 44 45 45 40 37 39 40 41 43 42 39
3 8 8 3 13 16 17 40 18 41 42 39 37 52 44 40 33 28 25 44 69 82 91 93 91 87 83 77 73 70 68 66 64 58 55 52 50 50 50 50 46 41 41 40 42 42 44 45 46
5 4 6 9 16 27 30 34 37 54 42 41 30 35 40 46 43 34 24 22 43 62 78 83 88 87 83 80 75 73 71 70 64 60 55 53 52 54 53 53 48 45 42 42 40 41 42 45 45
1 5 13 9 14 16 12 26 43 45 21 43 47 48 42 37 36 35 34 29 33 41 66 76 88 88 87 84 83 79 75 71 66 62 58 56 56 57 57 55 53 46 40 36 37 37 39 42 41
5 5 8 15 21 15 24 24 35 42 33 34 21 20 19 16 21 31 33 33 29 34 41 66 82 94 92 90 90 84 79 74 68 58 56 48 62 60 59 54 53 42 31 32 36 37 38 40 39
5 8 3 7 3 12 27 25 5 23 30 34 24 22 25 30 26 17 27 27 21 31 32 34 69 78 87 95 94 90 86 77 71 59 58 40 64 51 54 49 52 36 33 34 38 39 38 40 39
10 2 1 14 10 7 5 6 7 30 33 28 39 32 29 31 27 22 12 24 31 32 43 41 39 50 69 83 91 90 87 81 67 68 60 50 74 50 46 46 49 40 37 37 38 42 40 41 38
2 4 4 8 10 12 9 13 11 29 30 28 35 36 27 24 23 28 19 12 18 35 34 48 47 44 46 59 79 89 93 89 82 82 73 76 64 49 47 48 51 46 41 39 41 43 43 42 37
2 5 7 7 6 13 15 20 16 23 20 26 24 28 35 26 21 22 20 17 18 15 38 41 52 57 57 59 68 84 93 100 100 90 78 67 63 62 52 50 49 51 46 43 44 43 43 41 38
8 5 5 7 9 5 19 37 28 17 15 20 22 38 35 27 34 36 34 29 27 28 22 39 48 54 68 71 66 72 87 99 98 94 82 75 84 73 61 49 50 53 51 46 47 42 41 39 37
3 6 4 9 8 9 13 12 5 7 12 22 31 28 38 52 60 49 45 44 39 39 38 30 32 49 64 71 78 81 83 92 92 93 93 85 80 72 59 51 52 59 55 51 48 42 39 38 36
5 9 6 4 8 5 7 12 5 2 10 6 29 34 35 32 35 37 36 35 40 45 42 39 38 36 42 66 75 83 88 92 97 110 100 84 79 68 53 55 58 60 58 56 51 43 38 38 39
8 4 2 3 5 3 9 3 14 10 6 8 16 33 35 39 37 42 41 41 40 44 47 47 47 46 45 42 64 81 89 91 81 99 98 92 84 64 54 59 63 61 63 56 52 47 42 39 41
5 6 9 7 4 3 10 6 8 5 8 16 17 36 32 30 37 40 44 47 51 50 50 49 52 56 54 50 49 68 80 89 90 94 99 98 83 62 61 64 62 61 63 61 53 47 43 39 40
11 11 8 9 7 9 4 9 15 16 21 19 18 42 46 47 47 48 60 68 68 65 54 52 52 60 63 60 51 56 76 79 82 91 102 106 88 71 69 68 60 57 57 53 45 44 41 41 36
7 12 9 9 6 9 6 14 13 12 25 40 31 42 47 56 55 59 66 68 73 74 56 52 52 59 60 66 60 57 59 80 92 89 93 98 81 69 66 60 52 47 41 43 40 40 39 38 38
4 6 6 3 5 5 10 15 22 26 18 19 36 35 53 69 67 69 65 65 73 73 54 46 48 58 59 66 66 62 56 60 73 69 65 69 66 70 66 54 47 36 36 38 38 39 36 36 35
10 11 4 5 4 9 9 14 21 22 30 13 13 30 61 72 79 68 55 65 65 58 44 49 41 52 59 63 67 64 60 52 56 58 57 61 69 73 62 52 43 37 38 40 38 36 32 33 34
2 3 7 6 9 8 6 13 12 11 16 11 14 45 58 68 71 49 53 59 63 57 50 50 42 46 56 60 66 66 68 58 62 63 62 64 65 57 53 52 46 43 43 42 31 35 35 33 36
10 14 12 8 9 7 5 28 7 25 10 13 26 42 56 53 52 40 47 56 59 68 49 51 48 51 45 55 63 68 72 68 68 70 70 66 59 53 50 51 49 47 45 37 40 39 35 33 33
Wind_Direction_500mb
314 296 151 141 66 67 258 256 272 335 329 235 303 260 234 241 176 211 298 187 180 173 168 168 163 163 162 159 158 157 157 155 156 153 151 145 141 137 133 129 124 124 122 119 118 117 116 112 107
310 170 140 111 100 128 262 256 220 214 278 305 297 269 208 256 250 242 254 192 179 174 168 170 164 163 161 158 157 158 157 157 158 157 155 152 148 147 145 140 138 138 136 134 129 126 124 120 115
295 164 134 110 131 207 210 208 193 271 315 269 284 302 270 239 264 209 225 190 177 176 171 170 166 166 163 161 161 161 161 162 164 163 163 162 160 160 158 155 157 158 160 157 150 146 141 133 121
224 141 66 110 232 254 197 201 243 322 330 310 324 306 313 285 282 216 212 178 177 177 174 172 168 171 168 166 165 164 167 170 171 172 174 173 174 172 173 175 176 180 180 180 176 174 169 159 141
215 110 53 271 257 227 228 228 281 297 290 303 324 293 288 321 279 209 193 176 179 178 176 173 171 175 175 172 170 170 174 178 180 182 185 185 188 187 189 191 195 200 205 208 209 206 202 196 176
161 122 99 244 249 107 283 233 267 243 293 321 328 321 343 351 323 203 185 177 181 179 178 175 174 179 181 179 177 178 181 185 187 190 194 198 200 202 205 212 214 222 225 230 235 244 244 238 242
168 126 207 232 268 338 287 271 237 314 313 322 327 338 342 357 346 193 180 179 183 185 183 178 178 182 188 186 183 186 188 191 195 198 202 208 212 217 222 227 229 235 240 245 250 255 261 263 262
213 138 197 220 253 279 294 347 318 336 301 329 345 11 353 351 339 237 187 187 187 188 190 183 182 187 191 192 190 192 196 197 202 207 212 217 220 229 234 237 239 239 246 253 261 262 264 267 269
185 183 208 205 169 197 285 10 301 310 291 315 327 326 346 345 339 285 199 193 191 192 194 189 189 193 196 196 197 197 202 203 208 213 218 224 226 233 239 244 247 247 252 257 264 268 266 267 269
179 185 216 182 173 285 265 262 301 328 314 302 319 318 335 349 337 291 207 200 197 198 198 195 195 199 199 201 203 204 205 209 212 217 221 226 232 240 246 249 251 252 256 261 264 268 268 267 270
209 213 225 24 67 313 298 306 293 293 288 17 319 319 323 332 331 317 259 226 207 204 204 202 201 204 204 205 207 209 211 214 217 220 225 232 240 244 251 252 254 260 262 269 272 274 276 276 275
218 251 212 155 274 279 285 305 276 268 267 292 302 304 317 322 325 311 290 256 222 212 210 209 206 206 209 212 212 215 217 219 222 226 232 237 246 249 255 257 260 265 271 273 276 279 280 281 279
169 299 326 290 263 256 281 276 276 262 286 299 304 308 309 305 305 304 297 283 250 245 231 220 215 212 212 215 217 220 223 227 227 231 236 244 252 256 261 266 267 273 275 278 278 279 281 281 282
270 297 288 264 234 235 230 269 269 272 313 302 306 306 304 306 311 307 298 298 285 269 239 233 227 218 217 218 221 224 226 230 234 239 242 250 257 265 266 270 274 275 276 279 280 277 278 277 278
268 305 301 221 224 226 215 261 257 291 314 302 333 336 336 327 299 302 308 307 290 284 259 240 239 228 223 223 226 228 232 233 237 244 253 265 263 264 269 274 275 274 268 276 275 271 271 273 277
48 59 22 288 147 246 187 244 54 5 357 336 345 353 346 339 353 310 283 283 276 281 285 278 243 235 233 235 233 233 237 238 239 235 243 259 276 259 266 272 273 267 267 275 277 274 271 271 273
6 145 299 320 34 338 145 302 322 335 331 321 322 327 335 333 339 350 324 274 262 266 269 273 274 254 243 241 241 242 243 243 238 236 236 236 251 252 258 268 272 265 267 274 279 281 272 269 270
226 356 306 257 325 5 300 227 287 309 312 304 309 315 324 328 336 340 342 317 296 255 252 267 262 267 268 254 239 235 236 236 233 237 238 235 249 252 256 266 268 267 271 278 283 286 276 270 267
109 186 230 285 348 9 291 288 284 277 275 285 290 309 311 318 324 327 329 310 310 293 250 247 262 261 257 262 252 240 238 235 234 236 247 247 256 258 256 262 268 267 275 282 284 280 272 267 260
180 175 230 288 285 301 277 294 286 217 235 233 275 299 292 299 313 317 310 300 292 293 287 245 244 255 259 257 260 258 248 242 238 243 251 254 260 254 255 263 272 273 275 277 281 277 272 266 256
156 160 222 237 311 290 314 281 90 279 250 285 296 284 293 303 309 308 304 301 292 286 289 278 256 240 245 257 259 256 251 248 249 255 264 256 256 250 260 269 274 273 274 273 273 269 267 267 260
197 202 215 261 31 292 37 286 260 119 268 277 316 313 305 307 312 316 317 309 295 287 285 284 277 268 259 243 246 250 252 251 254 256 259 256 259 256 262 271 268 271 273 272 265 257 257 255 250
201 160 332 294 241 103 280 290 277 309 330 330 309 305 296 300 309 316 320 318 315 301 292 286 282 274 272 268 250 245 244 251 253 251 251 257 258 258 257 260 261 267 271 267 261 253 251 246 246
77 40 34 51 76 20 260 183 244 241 226 315 308 322 322 311 315 318 329 331 326 310 301 291 283 272 267 269 264 251 248 245 249 245 246 255 253 251 256 255 260 267 270 261 255 245 244 246 246
73 52 340 345 3 234 285 294 244 248 278 269 255 292 312 315 321 327 331 330 324 323 301 296 288 276 266 264 268 254 244 243 245 248 248 249 249 248 251 254 261 270 270 254 236 239 238 247 229
189 152 158 244 229 245 1 251 252 221 237 278 264 281 298 314 315 322 330 331 330 321 300 294 291 284 275 264 265 260 242 240 242 248 250 252 248 245 251 255 259 267 251 229 228 233 234 233 224
170 173 192 153 8 32 228 290 293 281 284 271 268 290 305 317 319 324 328 335 333 323 302 296 296 286 279 267 262 259 245 241 241 244 243 247 239 243 247 251 258 246 224 222 229 233 214 221 220
159 161 86 21 258 259 258 254 238 301 292 300 309 305 317 315 316 321 325 333 332 322 306 300 297 290 280 270 257 255 243 240 239 234 233 231 235 241 244 240 244 225 221 223 226 204 210 219 215
168 170 75 132 154 202 300 264 220 239 259 291 306 318 319 315 317 322 327 328 334 325 314 306 307 298 276 267 254 249 235 229 235 233 233 235 241 245 238 232 232 222 220 225 222 202 218 210 211
170 192 156 137 244 216 216 262 340 279 302 313 315 320 331 338 321 320 332 327 327 330 318 322 328 318 285 263 250 241 227 226 227 234 239 240 244 241 230 228 222 217 221 220 199 207 210 205 206
Wind_Speed_850mb
11 3 9 7 7 9 6 12 2 9 13 5 27 10 17 20 13 11 11 47 63 68 70 69 63 58 55 53 52 51 51 50 47 46 45 42 40 37 34 32 29 25 24 22 21 19 17 16 14
11 6 7 7 8 2 10 7 5 9 14 34 32 15 12 28 60 50 35 63 69 77 78 74 70 65 61 58 57 56 55 52 49 47 43 40 37 33 30 28 25 22 20 18 17 16 15 13 11
5 8 4 7 7 12 9 9 6 11 27 14 10 38 14 11 18 41 47 71 80 78 79 76 74 68 65 62 60 57 54 51 48 45 41 37 34 30 27 24 22 20 18 16 14 13 11 11 9
2 3 6 6 17 8 9 7 11 11 12 17 18 18 32 23 16 37 39 87 85 82 81 79 74 70 67 65 62 58 53 50 48 44 40 35 31 28 24 22 20 18 16 13 13 11 10 9 7
9 3 3 4 13 5 6 10 19 10 14 34 45 17 23 24 20 44 50 83 90 85 82 81 75 70 68 66 63 59 54 51 48 43 38 34 31 27 24 20 18 16 15 13 11 10 8 7 5
7 6 5 9 21 1 3 15 15 7 14 35 25 34 14 64 21 34 69 84 85 84 84 82 76 71 68 67 65 60 56 52 48 43 38 34 31 27 25 22 20 18 17 16 14 12 11 9 7
11 7 10 10 13 8 4 6 3 6 13 13 45 8 39 86 32 26 81 84 88 83 84 83 80 74 70 68 66 61 55 51 48 44 39 35 31 29 27 26 24 23 21 20 18 18 17 16 14
8 7 8 10 12 7 3 15 16 12 11 35 30 12 30 68 35 20 78 84 89 84 83 82 80 79 75 71 68 64 58 53 48 44 40 37 34 33 33 31 31 28 26 24 25 25 24 23 22
10 4 10 12 9 7 18 13 21 15 25 31 7 26 42 62 47 23 66 74 90 89 88 83 78 79 76 72 69 66 63 57 53 49 45 43 40 38 38 37 35 32 30 30 31 33 30 29 30
9 7 14 7 6 10 27 11 28 15 32 19 32 42 50 49 42 26 48 67 86 90 88 83 79 80 77 73 70 68 64 62 59 55 51 49 42 41 40 41 39 37 34 35 35 38 37 37 35
5 7 3 4 8 8 18 8 12 13 22 5 41 59 58 46 33 37 35 53 79 85 86 88 87 84 79 77 74 71 66 64 62 58 54 51 45 44 44 45 45 40 37 39 40 41 43 42 39
3 8 8 3 13 16 17 40 18 41 42 39 37 52 44 40 33 28 25 44 69 82 91 93 91 87 83 77 73 70 68 66 64 58 55 52 50 50 50 50 46 41 41 40 42 42 44 45 46
5 4 6 9 16 27 30 34 37 54 42 41 30 35 40 46 43 34 24 22 43 62 78 83 88 87 83 80 75 73 71 70 64 60 55 53 52 54 53 53 48 45 42 42 40 41 42 45 45
1 5 13 9 14 16 12 26 43 45 21 43 47 48 42 37 36 35 34 29 33 41 66 76 88 88 87 84 83 79 75 71 66 62 58 56 56 57 57 55 53 46 40 36 37 37 39 42 41
5 5 8 15 21 15 24 24 35 42 33 34 21 20 19 16 21 31 33 33 29 34 41 66 82 94 92 90 90 84 79 74 68 58 56 48 62 60 59 54 53 42 31 32 36 37 38 40 39
5 8 3 7 3 12 27 25 5 23 30 34 24 22 25 30 26 17 27 27 21 31 32 34 69 78 87 95 94 90 86 77 71 59 58 40 64 51 54 49 52 36 33 34 38 39 38 40 39
10 2 1 14 10 7 5 6 7 30 33 28 39 32 29 31 27 22 12 24 31 32 43 41 39 50 69 83 91 90 87 81 67 68 60 50 74 50 46 46 49 40 37 37 38 42 40 41 38
2 4 4 8 10 12 9 13 11 29 30 28 35 36 27 24 23 28 19 12 18 35 34 48 47 44 46 59 79 89 93 89 82 82 73 76 64 49 47 48 51 46 41 39 41 43 43 42 37
2 5 7 7 6 13 15 20 16 23 20 26 24 28 35 26 21 22 20 17 18 15 38 41 52 57 57 59 68 84 93 100 100 90 78 67 63 62 52 50 49 51 46 43 44 43 43 41 38
8 5 5 7 9 5 19 37 28 17 15 20 22 38 35 27 34 36 34 29 27 28 22 39 48 54 68 71 66 72 87 99 98 94 82 75 84 73 61 49 50 53 51 46 47 42 41 39 37
3 6 4 9 8 9 13 12 5 7 12 22 31 28 38 52 60 49 45 44 39 39 38 30 32 49 64 71 78 81 83 92 92 93 93 85 80 72 59 51 52 59 55 51 48 42 39 38 36
5 9 6 4 8 5 7 12 5 2 10 6 29 34 35 32 35 37 36 35 40 45 42 39 38 36 42 66 75 83 88 92 97 110 100 84 79 68 53 55 58 60 58 56 51 43 38 38 39
8 4 2 3 5 3 9 3 14 10 6 8 16 33 35 39 37 42 41 41 40 44 47 47 47 46 45 42 64 81 89 91 81 99 98 92 84 64 54 59 63 61 63 56 52 47 42 39 41
5 6 9 7 4 3 10 6 8 5 8 16 17 36 32 30 37 40 44 47 51 50 50 49 52 56 54 50 49 68 80 89 90 94 99 98 83 62 61 64 62 61 63 61 53 47 43 39 40
11 11 8 9 7 9 4 9 15 16 21 19 18 42 46 47 47 48 60 68 68 65 54 52 52 60 63 60 51 56 76 79 82 91 102 106 88 71 69 68 60 57 57 53 45 44 41 41 36
7 12 9 9 6 9 6 14 13 12 25 40 31 42 47 56 55 59 66 68 73 74 56 52 52 59 60 66 60 57 59 80 92 89 93 98 81 69 66 60 52 47 41 43 40 40 39 38 38
4 6 6 3 5 5 10 15 22 26 18 19 36 35 53 69 67 69 65 65 73 73 54 46 48 58 59 66 66 62 56 60 73 69 65 69 66 70 66 54 47 36 36 38 38 39 36 36 35
10 11 4 5 4 9 9 14 21 22 30 13 13 30 61 72 79 68 55 65 65 58 44 49 41 52 59 63 67 64 60 52 56 58 57 61 69 73 62 52 43 37 38 40 38 36 32 33 34
2 3 7 6 9 8 6 13 12 11 16 11 14 45 58 68 71 49 53 59 63 57 50 50 42 46 56 60 66 66 68 58 62 63 62 64 65 57 53 52 46 43 43 42 31 35 35 33 36
10 14 12 8 9 7 5 28 7 25 10 13 26 42 56 53 52 40 47 56 59 68 49 51 48 51 45 55 63 68 72 68 68 70 70 66 59 53 50 51 49 47 45 37 40 39 35 33 33
Wind_Direction_850mb
314 296 151 141 66 67 258 256 272 335 329 235 303 260 234 241 176 211 298 187 180 173 168 168 163 163 162 159 158 157 157 155 156 153 151 145 141 137 133 129 124 124 122 119 118 117 116 112 107
310 170 140 111 100 128 262 256 220 214 278 305 297 269 208 256 250 242 254 192 179 174 168 170 164 163 161 158 157 158 157 157 158 157 155 152 148 147 145 140 138 138 136 134 129 126 124 120 115
295 164 134 110 131 207 210 208 193 271 315 269 284 302 270 239 264 209 225 190 177 176 171 170 166 166 163 161 161 161 161 162 164 163 163 162 160 160 158 155 157 158 160 157 150 146 141 133 121
224 141 66 110 232 254 197 201 243 322 330 310 324 306 313 285 282 216 212 178 177 177 174 172 168 171 168 166 165 164 167 170 171 172 174 173 174 172 173 175 176 180 180 180 176 174 169 159 141
215 110 53 271 257 227 228 228 281 297 290 303 324 293 288 321 279 209 193 176 179 178 176 173 171 175 175 172 170 170 174 178 180 182 185 185 188 187 189 191 195 200 205 208 209 206 202 196 176
161 122 99 244 249 107 283 233 267 243 293 321 328 321 343 351 323 203 185 177 181 179 178 175 174 179 181 179 177 178 181 185 187 190 194 198 200 202 205 212 214 222 225 230 235 244 244 238 242
168 126 207 232 268 338 287 271 237 314 313 322 327 338 342 357 346 193 180 179 183 185 183 178 178 182 188 186 183 186 188 191 195 198 202 208 212 217 222 227 229 235 240 245 250 255 261 263 262
213 138 197 220 253 279 294 347 318 336 301 329 345 11 353 351 339 237 187 187 187 188 190 183 182 187 191 192 190 192 196 197 202 207 212 217 220 229 234 237 239 239 246 253 261 262 264 267 269
185 183 208 205 169 197 285 10 301 310 291 315 327 326 346 345 339 285 199 193 191 192 194 189 189 193 196 196 197 197 202 203 208 213 218 224 226 233 239 244 247 247 252 257 264 268 266 267 269
179 185 216 182 173 285 265 262 301 328 314 302 319 318 335 349 337 291 207 200 197 198 198 195 195 199 199 201 203 204 205 209 212 217 221 226 232 240 246 249 251 252 256 261 264 268 268 267 270
209 213 225 24 67 313 298 306 293 293 288 17 319 319 323 332 331 317 259 226 207 204 204 202 201 204 204 205 207 209 211 214 217 220 225 232 240 244 251 252 254 260 262 269 272 274 276 276 275
218 251 212 155 274 279 285 305 276 268 267 292 302 304 317 322 325 311 290 256 222 212 210 209 206 206 209 212 212 215 217 219 222 226 232 237 246 249 255 257 260 265 271 273 276 279 280 281 279
169 299 326 290 263 256 281 276 276 262 286 299 304 308 309 305 305 304 297 283 250 245 231 220 215 212 212 215 217 220 223 227 227 231 236 244 252 256 261 266 267 273 275 278 278 279 281 281 282
270 297 288 264 234 235 230 269 269 272 313 302 306 306 304 306 311 307 298 298 285 269 239 233 227 218 217 218 221 224 226 230 234 239 242 250 257 265 266 270 274 275 276 279 280 277 278 277 278
268 305 301 221 224 226 215 261 257 291 314 302 333 336 336 327 299 302 308 307 290 284 259 240 239 228 223 223 226 228 232 233 237 244 253 265 263 264 269 274 275 274 268 276 275 271 271 273 277
48 59 22 288 147 246 187 244 54 5 357 336 345 353 346 339 353 310 283 283 276 281 285 278 243 235 233 235 233 233 237 238 239 235 243 259 276 259 266 272 273 267 267 275 277 274 271 271 273
6 145 299 320 34 338 145 302 322 335 331 321 322 327 335 333 339 350 324 274 262 266 269 273 274 254 243 241 241 242 243 243 238 236 236 236 251 252 258 268 272 265 267 274 279 281 272 269 270
226 356 306 257 325 5 300 227 287 309 312 304 309 315 324 328 336 340 342 317 296 255 252 267 262 267 268 254 239 235 236 236 233 237 238 235 249 252 256 266 268 267 271 278 283 286 276 270 267
109 186 230 285 348 9 291 288 284 277 275 285 290 309 311 318 324 327 329 310 310 293 250 247 262 261 257 262 252 240 238 235 234 236 247 247 256 258 256 262 268 267 275 282 284 280 272 267 260
180 175 230 288 285 301 277 294 286 217 235 233 275 299 292 299 313 317 310 300 292 293 287 245 244 255 259 257 260 258 248 242 238 243 251 254 260 254 255 263 272 273 275 277 281 277 272 266 256
156 160 222 237 311 290 314 281 90 279 250 285 296 284 293 303 309 308 304 301 292 286 289 278 256 240 245 257 259 256 251 248 249 255 264 256 256 250 260 269 274 273 274 273 273 269 267 267 260
197 202 215 261 31 292 37 286 260 119 268 277 316 313 305 307 312 316 317 309 295 287 285 284 277 268 259 243 246 250 252 251 254 256 259 256 259 256 262 271 268 271 273 272 265 257 257 255 250
201 160 332 294 241 103 280 290 277 309 330 330 309 305 296 300 309 316 320 318 315 301 292 286 282 274 272 268 250 245 244 251 253 251 251 257 258 258 257 260 261 267 271 267 261 253 251 246 246
77 40 34 51 76 20 260 183 244 241 226 315 308 322 322 311 315 318 329 331 326 310 301 291 283 272 267 269 264 251 248 245 249 245 246 255 253 251 256 255 260 267 270 261 255 245 244 246 246
73 52 340 345 3 234 285 294 244 248 278 269 255 292 312 315 321 327 331 330 324 323 301 296 288 276 266 264 268 254 244 243 245 248 248 249 249 248 251 254 261 270 270 254 236 239 238 247 229
189 152 158 244 229 245 1 251 252 221 237 278 264 281 298 314 315 322 330 331 330 321 300 294 291 284 275 264 265 260 242 240 242 248 250 252 248 245 251 255 259 267 251 229 228 233 234 233 224
170 173 192 153 8 32 228 290 293 281 284 271 268 290 305 317 319 324 328 335 333 323 302 296 296 286 279 267 262 259 245 241 241 244 243 247 239 243 247 251 258 246 224 222 229 233 214 221 220
159 161 86 21 258 259 258 254 238 301 292 300 309 305 317 315 316 321 325 333 332 322 306 300 297 290 280 270 257 255 243 240 239 234 233 231 235 241 244 240 244 225 221 223 226 204 210 219 215
168 170 75 132 154 202 300 264 220 239 259 291 306 318 319 315 317 322 327 328 334 325 314 306 307 298 276 267 254 249 235 229 235 233 233 235 241 245 238 232 232 222 220 225 222 202 218 210 211
170 192 156 137 244 216 216 262 340 279 302 313 315 320 331 338 321 320 332 327 327 330 318 322 328 318 285 263 250 241 227 226 227 234 239 240 244 241 230 228 222 217 221 220 199 207 210 205 206